Weather in Yushkino

Russia / Pskov Oblast     58°38′37″N   27°52′31″E
temp.,
°C
wind,
m/s
gust,
m/s
humid.,
%
clouds,
%
prec.,
mm/h
press.,
hPa
HPBL,
m
10 may, mon
mon1000:00+4sse3117558 0.0 1019209
03:00+6sse41272100 0.1 1019462
06:00+6s51487100 1.3 1018579
09:00+10s512737 1.3 1019552
12:00+16ssw6105599 0.0 1019842
15:00+20ssw610485 0.0 10191609
18:00+20s5105283 0.0 10201553
21:00+15s51366100 0.0 1021642
11 may, tue
tue1100:00+13s51475100 0.0 1022509
03:00+11s41381100 0.0 1023383
06:00+11s41282100 0.0 1024340
09:00+15s4106398 0.0 1024457
12:00+19s584795 0.0 1024954
15:00+21s574112 0.0 10241230
18:00+20s46466 0.0 10231180
21:00+14se377273 0.0 1023124
12 may, wed
wed1200:00+11se310776 0.0 1024181
03:00+10se38835 0.0 1024138
06:00+9se387817 0.0 1024147
09:00+16sse35575 0.0 1024433
12:00+20sse4552100 0.0 10231044
15:00+22sse3548100 0.0 10221484
18:00+23se24490 0.0 10201752
21:00+17e37770 0.0 1020124
13 may, thu
thu1300:00+14ne412803 0.0 1018266
03:00+13e413876 0.0 1017403
06:00+13ese4119075 0.0 1017621
09:00+14se47603 0.0 1017790
12:00+18ese510455 0.0 10161613
15:00+16se595598 0.0 10161430
18:00+13se387861 0.3 1015487
21:00+12ese3979100 0.5 1015381
14 may, fri
fri1400:00+10ese3108640 0.0 1015319
03:00+8ese311885 0.0 1015270
06:00+9ese4138275 0.0 1014392
09:00+15ese51162100 0.0 1013686
12:00+17ese5856100 0.0 10131070
15:00+20ese5749100 0.0 10111737
18:00+19ese51067100 0.8 10091179
21:00+15ese41290100 2.3 1008551